Погода в Лебединке

Россия / Омская область     56°55′05″N   75°50′36″E
темп.,
°C
ветер,
м/с
пор.,
м/с
влажн.,
%
обл.,
%
осадки,
мм/ч
давл.,
гПа
погр.,
м
14 мая, пт
пт1400:00+8ссз279610 0.1 1022160
03:00+7с3108597 0.0 1023368
06:00+5с3887100 0.0 1026429
09:00+9с355099 0.0 1026630
12:00+14ссз2429100 0.0 1026973
15:00+17зсз342568 0.0 10241259
18:00+19зюз46285 0.0 10231188
21:00+14зюз312475 0.0 1022295
15 мая, сб
сб1500:00+14зюз4145585 0.0 1021342
03:00+13з51766100 0.2 1020600
06:00+14зюз4127431 1.1 1019375
09:00+18з48565 0.0 1018473
12:00+25з584094 0.0 1016932
15:00+29зсз6102977 0.0 10153475
18:00+24з234397 0.0 1014146
21:00+16юз3687100 7.1 1016158
16 мая, вс
вс1600:00+15юз3883100 8.3 1013121
03:00+15ююз2387100 0.9 101248
06:00+14сз3119079 0.9 1013300
09:00+18сз4771100 0.0 1014695
12:00+22зсз355193 0.0 10131129
15:00+24зсз6134643 0.1 10132835
18:00+21ссз69595 0.3 10141309
21:00+15ссв268393 0.0 1016195
17 мая, пн
пн1700:00+12ссв00935 0.0 101710
03:00+11зюз11955 0.0 101710
06:00+12зюз14905 0.0 1018124
09:00+19юз366061 0.0 1016580
12:00+24зюз47475 0.1 10141129
15:00+28зюз51131100 0.0 10112991
18:00+29з492991 0.0 10092490
21:00+22з254976 0.0 100989
18 мая, вт
вт1800:00+16ссз41374100 0.3 1011394
03:00+14зюз268266 0.1 1008103
06:00+15сз311805 0.1 1009351
09:00+19сз47635 0.0 1008799
12:00+23сз4849100 0.4 10071997
15:00+21ссз585991 2.0 10071272
18:00+19с576840 2.4 10071072
21:00+15ссв378563 1.3 1009330